Location: Peterborough
(44.3091°N, 78.3197°W)
Time: 03:53:30
(UTC-04:00)

Vanguard 3 - Pass Details

Date: 29 March 2023
Orbit: 507 x 3246 km, 33.4° (Epoch: 08 June)

Event Time Altitude Azimuth Distance (km) Brightness Sun altitude
Rises 08:15:30 0° 276° (W) 7,209 11.3 12.6°
Reaches altitude 10° 08:20:52 10° 271° (W) 6,160 11.1 13.6°
Maximum altitude 08:37:36 40° 211° (SSW) 3,570 10.4 16.5°
Drops below altitude 10° 08:49:33 10° 148° (SSE) 4,436 11.7 18.6°
Sets 08:52:44 0° 140° (SE) 5,091 12.1 19.1°
